Weather History for KCQX - September, 2012

Change the Weather History Date:

Wednesday, September 26, 2012

  Actual Average Record
Temperature  
Mean Temperature 68 °F -  
Max Temperature 73 °F 65 °F 82 °F (2011)
Min Temperature 64 °F 52 °F 44 °F (1978)
Cooling Degree Days 2    
Growing Degree Days 18 (Base 50)    
Moisture  
Dew Point 61 °F    
Average Humidity 78    
Maximum Humidity 88    
Minimum Humidity 68    
Precipitation  
Precipitation 0.00 in - - ()
Sea Level Pressure  
Sea Level Pressure 30.12 in    
Wind  
Wind Speed 9 mph (SW)    
Max Wind Speed 15 mph    
Max Gust Speed 28 mph    
Visibility 10 miles    
Events Rain    
Averages and records for this station are not official NWS values.
T = Trace of Precipitation, MM = Missing Value Source: NWS Daily Summary

Daily Weather History Graph

Daily Weather History Graph

Search for Another Location

Airport or City:

Trip Planner

Search our weather history database for the weather conditions in past years. The results will help you decide how hot, cold, wet, or windy it might be!

Date:

Astronomy

Sep. 26, 2012 Rise Set
Actual Time 6:32 AM EDT 6:29 PM EDT
Civil Twilight 6:04 AM EDT 6:57 PM EDT
Nautical Twilight 5:31 AM EDT 7:29 PM EDT
Astronomical Twilight 4:59 AM EDT 8:02 PM EDT
Moon 4:29 PM EDT (9/26) 2:52 AM EDT (9/26)
Length of Visible Light 12h 52m
Length of Day
11h 57m
Waxing Gibbous, 88% of the Moon is Illuminated
Sep 26
Waxing Gibbous
Sep 29
Full
Oct 8
Last Quarter
Oct 15
New
Oct 21
First Quarter

Hourly Weather History & Observations

Time (EDT) Temp. Dew Point Humidity Pressure Visibility Wind Dir Wind Speed Gust Speed Precip Events Conditions
12:52 AM 64.0 °F 55.0 °F 73% 30.20 in 10.0 mi SSW 10.4 mph 17.3 mph N/A   Clear
2:52 AM 64.0 °F 55.0 °F 73% 30.19 in 10.0 mi SW 8.1 mph 17.3 mph N/A   Scattered Clouds
4:52 AM 64.9 °F 57.0 °F 75% 30.17 in 10.0 mi SW 9.2 mph 16.1 mph N/A   Clear
5:52 AM 64.9 °F 55.9 °F 73% 30.18 in 10.0 mi SW 8.1 mph - N/A   Partly Cloudy
6:52 AM 64.9 °F 57.0 °F 75% 30.18 in 10.0 mi SSW 5.8 mph - N/A   Clear
7:52 AM 66.0 °F 59.0 °F 78% 30.18 in 10.0 mi Variable 5.8 mph - N/A   Scattered Clouds
8:52 AM 66.9 °F 59.0 °F 76% 30.17 in 10.0 mi South 5.8 mph - N/A   Scattered Clouds
9:52 AM 70.0 °F 60.1 °F 71% 30.18 in 10.0 mi SSW 9.2 mph - N/A   Clear
10:52 AM 71.1 °F 61.0 °F 70% 30.16 in 10.0 mi SSW 6.9 mph 19.6 mph N/A   Clear
11:52 AM 71.1 °F 60.1 °F 68% 30.15 in 10.0 mi SSW 11.5 mph 23.0 mph N/A   Scattered Clouds
12:52 PM 70.0 °F 61.0 °F 73% 30.14 in 10.0 mi SSW 15.0 mph 27.6 mph N/A   Mostly Cloudy
2:16 PM 69.8 °F 60.8 °F 73% 30.12 in 1.8 mi SSW 11.5 mph 21.9 mph N/A   Haze
2:30 PM 69.8 °F 60.8 °F 73% 30.11 in 10.0 mi SSW 12.7 mph 24.2 mph N/A   Overcast
2:52 PM 69.1 °F 61.0 °F 75% 30.11 in 10.0 mi SSW 10.4 mph 19.6 mph N/A   Overcast
3:52 PM 69.1 °F 62.1 °F 78% 30.09 in 10.0 mi SSW 8.1 mph 17.3 mph N/A   Overcast
4:52 PM 69.1 °F 62.1 °F 78% 30.08 in 10.0 mi SSW 11.5 mph 20.7 mph N/A   Overcast
5:52 PM 68.0 °F 62.1 °F 81% 30.08 in 10.0 mi SSW 11.5 mph 18.4 mph N/A   Overcast
6:52 PM 68.0 °F 63.0 °F 84% 30.08 in 10.0 mi SW 10.4 mph 18.4 mph N/A   Overcast
8:52 PM 68.0 °F 63.0 °F 84% 30.08 in 10.0 mi SSW 9.2 mph 16.1 mph N/A   Overcast
9:05 PM 68.0 °F 62.6 °F 83% 30.08 in 10.0 mi SW 6.9 mph - N/A   Overcast
9:26 PM 68.0 °F 62.6 °F 83% 30.08 in 10.0 mi SW 8.1 mph 18.4 mph N/A   Overcast
9:40 PM 68.0 °F 62.6 °F 83% 30.08 in 10.0 mi SW 8.1 mph - N/A   Overcast
9:52 PM 68.0 °F 63.0 °F 84% 30.08 in 10.0 mi SW 8.1 mph 17.3 mph N/A   Overcast
10:07 PM 68.0 °F 64.4 °F 88% 30.07 in 10.0 mi SW 9.2 mph 17.3 mph N/A   Overcast
10:34 PM 68.0 °F 64.4 °F 88% 30.06 in 10.0 mi SW 9.2 mph - 0.00 in Rain Light Rain
10:52 PM 68.0 °F 64.0 °F 87% 30.06 in 10.0 mi SW 8.1 mph - 0.00 in   Overcast
11:52 PM 68.0 °F 64.0 °F 87% 30.05 in 10.0 mi SW 8.1 mph 19.6 mph 0.00 in   Overcast